• Processing (Info)

  • MPEC 1995-C05 : 1995 BM2

    The following Minor Planet Electronic Circular may be linked-to from your own Web pages, but must not otherwise be redistributed electronically.

    A form allowing access to any MPEC is at the bottom of this page.


    Read MPEC 1995-C04 Read MPEC 1995-C06


    M.P.E.C. 1995-C05                                Issued 1995 Feb. 2, 14:51 UT
    
         The Minor Planet Electronic Circulars contain information on unusual
             minor planets and routine data on comets.  They are published
       on behalf of Commission 20 of the International Astronomical Union by the
              Minor Planet Center, Smithsonian Astrophysical Observatory,
                              Cambridge, MA 02138, U.S.A.
    
              MARSDEN@CFA or WILLIAMS@CFA (.HARVARD.EDU, .SPAN or .BITNET)
    
                                       1995 BM2
    
    Discovered 1995 Jan. 29 by R. H. McNaught at Siding Spring.
    
    Available observations:
         J95B02M* A1995 01 29.41988 07 28 45.65 -18 17 00.2          17.5 V      413
         J95B02M  A1995 01 29.46363 07 28 43.00 -18 17 19.8                      413
         J95B02M  C1995 02 01.48659 07 25 53.21 -18 38 03.0                      413
         J95B02M  C1995 02 01.48957 07 25 53.04 -18 38 04.1                      413
         J95B02M  C1995 02 01.70483 07 25 40.38 -18 39 20.4                      413
         J95B02M  C1995 02 01.70775 07 25 40.22 -18 39 21.5                      413
         J95B02M  C1995 02 02.41463 07 25 02.87 -18 43 26.5                      413
         J95B02M  C1995 02 02.41777 07 25 02.68 -18 43 27.5                      413
         J95B02M  C1995 02 02.42096 07 25 02.51 -18 43 28.6                      413
    
    Observer details:
    413 Siding Spring Observatory.  Observers M. Hartley, R. H. McNaught,
        D. I. Steel, D. J. Asher.  Measurer R. H. McNaught.  U.K. Schmidt,
        1.0-m reflector + CCD.
    
    Orbital elements:
    1995 BM2
    Epoch 1995 Jan. 23.0 TT = JDT 2449740.5                 Williams
    M 351.72283              (2000.0)            P               Q
    n   0.09118554     Peri.  325.59474     -0.97413484     +0.09877937
    a   4.8886100      Node   221.59062     -0.06456374     -0.98356995
    e   0.7353134      Incl.   17.82829     -0.21654754     -0.15110525
    P  10.81           H    15.5          G   0.15
    From 9 observations 1994 Jan. 29-Feb. 2.
    
    Ephemeris:
    1995 BM2                 a,e,i = 4.89, 0.74, 18                  q = 1.2939
    Date    TT    R. A. (2000) Decl.     Delta      r     Elong.  Phase     V
    1995 02 02    07 25.42   -18 41.1    0.778    1.644   137.3    24.0    17.2
    1995 02 12    07 17.50   -19 12.3    0.734    1.573   131.6    28.0    17.1
    1995 02 22    07 13.17   -18 51.9    0.700    1.507   125.5    32.3    17.0
    1995 03 04    07 13.98   -17 46.1    0.673    1.448   119.7    36.5    16.9
    1995 03 14    07 21.01   -16 04.2    0.649    1.396   114.7    40.3    16.9
    1995 03 24    07 34.74   -13 55.7    0.629    1.353   110.6    43.6    16.8
    1995 04 03    07 55.37   -11 27.5    0.613    1.322   107.7    46.1    16.8
    1995 04 13    08 22.82   -08 47.6    0.601    1.301   105.8    47.8    16.8
    1995 04 23    08 56.45   -06 04.6    0.598    1.294   104.8    48.7    16.8
    1995 05 03    09 35.11   -03 30.3    0.606    1.299   104.5    48.7    16.8
    1995 05 13    10 16.93   -01 19.3    0.630    1.318   104.5    47.9    16.9
    1995 05 23    10 59.52   +00 16.4    0.673    1.348   104.4    46.7    17.1
    1995 06 02    11 40.79   +01 10.8    0.734    1.389   104.0    45.1    17.3
    1995 06 12    12 19.32   +01 25.5    0.814    1.439   103.2    43.4    17.5
    1995 06 22    12 54.49   +01 07.6    0.911    1.498   101.8    41.6    17.8
    1995 07 02    13 26.36   +00 25.6    1.024    1.563    99.9    39.9    18.1
    1995 07 12    13 55.34   -00 32.5    1.151    1.633    97.6    38.1    18.4
    1995 07 22    14 21.88   -01 39.7    1.290    1.708    94.8    36.4    18.7
    1995 08 01    14 46.49   -02 51.0    1.439    1.785    91.7    34.6    19.0
    1995 08 11    15 09.60   -04 02.6    1.598    1.865    88.2    32.9    19.3
    1995 08 21    15 31.52   -05 11.4    1.765    1.947    84.4    31.1    19.5
    1995 08 31    15 52.52   -06 15.6    1.938    2.030    80.4    29.4    19.8
    1995 09 10    16 12.80   -07 13.4    2.116    2.114    76.1    27.5    20.0
    1995 09 20    16 32.49   -08 03.9    2.298    2.198    71.6    25.7    20.2
    1995 09 30    16 51.68   -08 46.3    2.482    2.283    66.9    23.8    20.4
    
    Gareth V. Williams                                            M.P.E.C. 1995-C05
    

    Read MPEC 1995-C04 Read MPEC 1995-C06


    MPEC number:

    Enter an MPEC number in one of the following forms:

    • 1997-B01 (the full form)
    • J97B01 (the packed version of the full form)
    • B01 (the abbreviated form)